Theta_e
333 333 334 335 333 333 333 332 332 331 329 331 331 331 331 332 332 331 331 330 330 329 328 327 325 324 323 323 322 322 322 323 323 322 322 321 322 320 320 319 320 319 315
324 324 326 330 330 330 329 329 330 328 327 325 324 326 327 329 329 329 329 329 329 330 330 330 329 327 327 326 326 325 324 324 323 323 323 323 321 322 323 321 321 319 315
321 320 320 320 320 320 320 319 318 318 318 317 317 317 317 317 318 322 325 325 325 325 325 325 324 323 323 323 323 324 324 324 324 324 324 323 323 323 323 323 321 319 316
319 319 319 318 318 317 317 316 316 316 316 315 315 315 315 315 315 315 317 318 320 320 321 321 321 322 323 324 324 324 323 323 322 321 322 322 320 320 319 317 315 319 319
318 318 317 316 316 315 314 314 314 313 313 312 313 313 312 312 313 313 314 314 314 315 316 315 315 316 317 320 321 322 322 322 322 323 322 322 321 321 320 317 319 320 318
316 315 315 314 313 312 312 311 311 311 311 312 312 312 312 312 312 312 311 310 309 309 311 312 312 312 312 312 313 313 314 314 315 314 315 317 321 321 321 320 321 319 317
315 314 313 312 311 310 309 309 309 308 308 308 308 309 309 309 309 310 311 311 312 312 312 312 312 311 311 311 311 311 311 311 313 314 315 314 314 314 317 320 319 319 318
313 312 311 310 309 309 308 308 308 307 307 307 307 307 308 308 308 309 309 310 310 310 310 310 309 309 309 308 308 308 309 309 309 311 313 314 315 316 317 316 317 318 318
312 310 309 308 307 307 307 307 306 306 306 307 307 306 306 305 305 305 305 304 304 305 305 306 307 306 306 306 306 306 306 306 307 308 309 311 312 314 315 316 317 317 318
308 307 307 307 306 306 306 305 304 304 303 304 303 304 304 305 306 305 305 304 304 305 305 307 307 306 305 305 305 305 304 306 307 308 309 311 314 314 313 313 316 316 316
306 306 305 305 304 303 302 303 302 302 302 302 302 303 303 304 305 304 303 302 302 302 303 305 306 305 304 303 303 304 304 306 307 308 309 309 309 311 313 315 316 316 316
304 304 302 302 302 302 302 301 300 299 299 301 301 302 303 303 302 302 300 300 300 300 300 302 303 304 303 302 302 302 303 304 305 306 306 306 306 307 311 312 314 315 315
302 301 302 302 301 300 299 299 298 298 299 299 299 299 300 299 298 298 299 299 299 299 301 301 302 302 302 303 303 303 305 306 305 305 305 305 305 305 308 313 315 315 316
302 301 301 301 300 299 299 298 298 299 298 298 298 298 298 297 297 297 297 297 298 298 300 300 301 302 302 303 305 306 306 306 306 307 307 306 306 306 307 309 309 311 312
300 300 299 299 299 299 299 299 299 298 298 298 298 298 298 298 299 298 297 297 297 297 298 300 302 303 304 306 308 308 309 309 310 310 310 307 307 307 307 308 309 310 310
299 298 298 298 299 299 299 299 299 300 301 301 300 300 301 301 301 300 299 298 298 299 300 302 304 305 307 308 308 309 310 311 312 311 312 311 310 308 309 310 312 312 312
298 298 298 299 299 299 299 299 299 302 301 302 302 302 303 303 303 302 301 302 304 304 304 305 305 305 309 309 310 312 313 314 314 314 314 314 313 311 311 310 311 314 313
298 297 299 299 299 299 299 300 301 301 301 302 303 304 304 304 305 305 304 305 305 306 306 305 306 309 310 312 313 314 314 315 317 315 314 314 313 313 313 313 313 311 313
298 299 299 298 299 299 299 300 301 300 302 302 303 303 303 304 305 306 306 307 307 307 305 305 309 311 314 313 314 315 316 317 318 316 314 315 314 314 314 314 314 312 314
299 299 297 298 298 298 299 300 300 302 302 302 302 303 305 305 306 307 308 308 308 306 305 308 311 314 313 314 315 316 313 316 318 318 316 314 313 313 314 314 314 315 317
300 301 300 299 298 298 299 299 300 301 302 301 303 304 305 306 307 307 307 306 306 307 310 311 315 316 316 315 314 316 315 316 317 318 318 317 317 316 316 317 317 317 317
300 300 300 300 300 299 299 298 299 301 301 301 304 305 305 306 306 306 306 307 308 310 311 313 315 316 315 317 319 319 320 318 315 316 316 317 315 315 316 317 317 317 317
300 299 299 300 300 300 300 299 299 300 300 301 303 304 304 305 306 307 310 310 311 312 313 313 315 315 316 318 318 319 319 319 319 320 319 318 319 318 316 317 318 318 319
298 298 299 299 300 299 298 297 298 298 300 301 302 303 304 304 305 309 312 313 312 314 314 314 315 316 316 317 317 318 318 318 318 318 318 319 320 321 320 320 319 320 319
296 296 297 297 298 298 298 298 298 297 298 301 302 302 303 305 306 310 313 315 316 316 315 317 315 317 314 314 316 317 317 317 317 317 317 318 319 320 321 321 320 320 320
294 294 294 294 294 295 296 296 296 298 299 300 300 302 303 304 306 310 311 313 316 316 317 316 315 313 314 315 314 316 317 317 317 316 316 314 315 317 317 317 318 319 319
Wind_Speed
5 7 6 6 4 6 8 9 9 9 8 8 13 18 18 15 18 21 24 26 29 30 31 33 34 33 34 35 36 36 34 33 36 37 32 28 28 36 30 30 25 22 32
8 2 4 7 10 11 14 15 16 16 17 19 19 17 20 23 24 23 24 26 31 34 37 35 38 37 38 40 40 42 41 40 40 43 39 38 35 29 25 31 22 29 28
1 5 7 9 12 13 15 16 17 18 20 22 24 26 27 27 27 28 31 32 31 30 31 35 39 40 42 41 40 41 42 43 40 42 43 42 40 33 27 28 36 43 23
7 6 8 12 15 16 18 19 21 23 24 25 26 27 28 28 29 30 32 33 35 36 36 35 35 33 33 33 35 37 39 40 42 43 44 42 42 40 40 37 37 31 26
11 14 15 14 17 19 20 21 23 25 26 26 27 27 28 28 29 30 31 33 36 39 41 41 39 37 33 28 26 27 30 32 34 37 41 38 35 34 33 32 30 24 25
15 16 18 19 20 21 23 23 22 23 23 23 24 25 27 29 31 32 36 40 43 45 47 47 47 46 44 44 44 43 40 35 37 36 35 33 35 34 29 28 28 28 23
17 21 23 24 25 24 23 24 26 27 29 31 33 34 35 35 36 35 36 37 38 39 40 41 44 44 43 42 44 44 45 44 39 37 39 42 42 42 37 36 37 39 29
18 19 21 23 24 27 29 31 33 36 37 38 40 40 40 39 39 40 40 43 45 46 47 48 49 49 50 49 50 47 44 42 41 43 44 42 40 38 35 37 40 42 41
20 22 21 24 28 30 33 36 38 39 40 41 41 42 43 45 44 43 42 44 45 44 43 41 41 43 43 44 45 46 46 48 45 44 41 42 46 46 39 33 32 32 31
19 21 25 29 33 35 38 39 41 42 45 47 49 47 46 43 31 26 26 29 31 33 32 31 31 32 30 28 28 30 32 33 29 30 27 26 25 29 31 38 38 34 33
24 28 31 35 37 39 42 43 43 40 37 35 34 31 26 23 23 25 25 26 28 29 29 30 28 25 20 20 21 24 27 25 24 22 26 29 30 27 26 30 31 34 33
31 34 35 38 40 37 34 32 31 29 28 26 26 25 25 25 26 28 25 22 23 26 30 29 29 26 27 26 27 28 29 29 28 28 32 34 34 32 27 25 25 29 31
35 38 36 31 29 26 24 24 24 22 22 24 26 28 29 30 29 28 26 23 22 24 18 19 19 23 27 29 29 27 27 26 31 37 38 39 36 32 27 20 17 22 30
32 28 26 23 20 19 19 19 20 22 23 24 25 28 29 30 30 30 28 24 22 24 26 27 28 29 30 28 29 29 26 26 28 32 35 33 31 28 26 28 29 25 25
23 21 19 18 19 19 18 19 20 19 18 20 22 23 25 27 23 20 21 23 23 24 25 26 27 24 25 26 22 22 23 25 29 28 28 29 28 24 25 23 23 26 29
18 18 18 18 19 19 19 20 14 16 18 19 18 19 22 25 25 21 19 19 17 13 15 16 19 23 23 27 26 26 29 28 26 27 30 31 32 30 24 19 18 21 24
16 16 16 17 17 17 17 18 20 22 24 23 16 17 18 21 19 12 7 6 5 7 13 18 20 25 27 28 30 32 29 24 24 31 34 35 33 31 28 28 24 18 20
14 13 15 15 14 16 17 18 21 27 28 25 16 19 19 21 17 15 13 10 10 14 14 24 24 24 27 33 28 23 24 25 26 12 9 24 34 31 27 24 26 23 16
12 12 12 10 12 15 16 18 20 20 19 26 22 18 17 11 17 16 15 18 17 17 18 24 18 24 22 21 21 25 29 29 19 9 10 12 22 24 22 22 23 24 20
10 11 9 9 8 14 13 17 17 17 22 26 29 24 21 19 19 19 18 15 15 17 23 12 19 19 17 16 24 25 20 18 15 8 12 15 19 21 22 21 22 20 18
10 12 11 10 8 8 10 15 16 16 19 23 25 24 18 17 17 18 17 18 17 18 13 18 22 26 18 13 15 16 10 22 15 9 13 20 20 19 16 14 15 18 14
10 12 12 13 12 10 8 9 11 13 14 18 21 24 22 18 19 19 18 17 15 11 13 21 18 22 16 19 20 15 11 10 13 19 15 17 23 23 19 16 15 14 14
11 12 12 13 14 14 11 10 12 14 14 16 18 22 25 23 23 21 24 16 13 15 20 19 9 20 25 22 26 30 33 24 22 23 20 16 13 20 24 23 20 17 14
12 14 15 15 15 15 16 14 14 16 17 19 21 21 24 28 25 26 24 21 15 19 23 19 14 18 22 27 31 31 27 30 32 32 26 18 19 19 18 15 12 11 12
16 18 18 19 18 17 17 18 17 17 19 19 19 20 23 26 26 25 27 27 26 22 19 16 9 15 18 22 28 28 26 24 22 21 22 25 28 22 14 13 10 8 8
26 27 27 27 26 24 22 22 22 21 21 21 21 22 22 23 26 25 26 26 24 24 19 16 16 12 12 15 17 20 17 16 18 18 14 15 15 16 17 15 12 9 6
Wind_Direction
114 122 147 190 222 237 236 247 253 241 240 202 200 216 226 247 266 271 272 270 270 274 274 273 273 275 276 278 282 280 277 274 275 279 282 283 272 290 292 292 283 287 310
66 13 266 244 257 258 262 264 261 267 259 260 261 256 254 248 248 250 259 266 269 269 268 268 269 269 268 271 274 274 277 278 279 280 282 282 286 291 294 285 266 295 296
115 35 7 334 309 310 307 300 295 285 279 279 278 276 273 271 267 264 264 264 264 267 273 274 273 274 274 273 273 272 275 278 277 278 279 281 281 279 280 272 280 292 279
355 326 315 320 318 314 315 310 307 304 300 298 290 287 284 282 278 275 273 273 271 270 270 270 270 270 272 274 274 274 274 272 273 275 278 277 279 280 281 283 285 277 265
320 317 319 320 314 313 309 308 309 305 302 301 298 295 294 291 287 284 280 276 275 272 270 270 271 271 269 266 267 267 266 268 272 276 275 274 271 273 272 281 278 265 264
318 319 317 316 313 310 309 309 298 294 289 285 282 282 280 279 279 278 278 279 277 274 275 277 277 277 277 275 271 270 271 272 270 272 272 273 272 267 267 266 261 262 269
311 313 313 310 309 307 297 290 288 287 285 284 283 282 282 282 283 282 280 279 278 278 279 280 281 281 281 281 280 276 272 267 268 271 270 271 272 269 267 258 258 263 265
307 303 304 306 298 294 290 290 290 289 289 289 287 286 284 283 281 281 280 278 277 277 276 276 279 279 278 279 281 280 278 279 273 265 259 264 263 262 261 264 263 263 266
300 305 301 295 290 291 293 292 291 290 289 288 287 286 286 286 287 287 284 283 282 280 281 283 284 282 281 276 277 278 279 275 271 271 268 260 261 263 262 266 262 258 253
293 287 288 291 294 295 296 296 295 293 291 291 289 288 288 290 291 292 293 292 292 292 290 290 291 289 286 284 279 278 277 279 277 271 264 261 256 257 255 252 254 255 254
292 295 297 297 298 298 298 297 296 297 298 299 300 300 296 296 298 300 302 303 301 299 293 291 292 288 289 288 277 273 276 275 277 274 268 271 269 263 256 247 245 245 246
301 303 305 305 305 307 308 307 307 309 309 309 311 310 308 308 306 305 310 302 295 291 293 291 289 286 284 285 286 283 274 271 268 264 265 269 269 262 258 255 248 242 241
309 310 311 314 318 320 321 324 324 325 323 321 317 314 314 315 315 314 309 301 293 291 299 296 286 288 286 288 284 285 280 275 265 262 263 267 269 268 251 245 240 241 236
313 319 325 330 333 339 340 340 338 337 331 326 321 319 317 314 311 311 310 307 290 284 276 279 284 288 292 295 292 289 281 273 268 265 263 264 264 258 248 242 247 247 241
328 333 340 346 351 350 355 353 349 340 331 325 323 321 318 316 326 323 317 306 298 291 287 280 284 299 301 302 305 299 297 290 287 270 263 257 253 247 244 242 238 236 236
340 346 352 355 357 356 354 353 0 356 354 348 339 326 324 318 318 312 305 305 301 299 297 298 301 308 309 310 311 309 302 295 286 273 265 257 250 241 232 229 228 229 230
348 349 357 359 360 2 358 349 349 7 1 1 360 349 353 357 356 344 344 27 23 320 306 329 333 327 323 312 311 314 307 310 296 279 259 248 245 239 233 227 218 221 220
347 353 358 4 7 1 360 354 353 349 356 359 13 6 6 2 1 353 357 356 336 338 346 342 337 337 324 327 336 330 326 334 352 346 282 225 225 227 225 218 217 218 214
349 357 2 15 8 4 4 0 4 360 16 16 2 357 356 5 355 1 348 343 344 347 343 340 335 334 352 341 342 345 343 348 360 22 64 160 191 206 196 197 197 200 204
3 6 360 6 7 5 354 360 4 14 16 13 11 10 357 4 9 12 7 360 349 342 337 342 346 11 0 354 346 3 19 25 38 69 88 129 142 160 173 182 187 189 195
12 9 2 357 349 344 359 7 9 10 9 9 14 16 9 10 21 12 3 356 348 348 352 352 9 16 14 355 15 19 41 53 70 84 122 122 118 135 147 157 164 161 170
22 13 18 14 10 357 347 356 9 4 356 4 11 17 19 16 8 360 6 5 357 2 1 12 28 31 41 22 16 24 45 113 101 82 141 137 123 113 142 149 153 166 197
33 26 26 27 26 23 16 15 23 10 13 15 12 15 21 26 25 33 40 32 33 17 14 28 43 44 36 51 47 66 73 114 83 92 114 137 138 143 147 143 153 173 194
43 41 38 36 34 33 33 28 26 27 26 26 23 19 24 31 40 50 57 59 33 14 41 88 54 49 48 62 62 78 80 80 90 91 93 95 101 121 125 136 140 125 133
57 53 49 46 44 42 40 41 35 31 31 31 24 23 29 38 52 59 71 70 68 65 62 65 80 36 60 62 66 76 78 76 76 80 87 93 96 99 111 112 103 131 137
70 66 63 59 56 53 50 47 45 43 37 36 37 36 34 36 51 61 67 74 79 84 89 82 76 68 67 70 68 72 73 71 69 65 66 81 90 87 81 73 71 77 72